Regional Weather Roundup
Issued by NWS

Home | Current Version | Previous Version | Graphics & Text | Print | Product List | Glossary On
Versions: 1 2 3 4 5 6 7 8 9 10 11 12 13 14 15 16 17 18 19 20 21 22 23 24 25 26 27 28 29 30 31 32 33 34 35 36 37 38 39 40 41 42 43 44 45 46 47 48 49 50
000
ASUS43 KIND 101359
RWRIN

WEATHER ROUNDUP FOR INDIANA
NATIONAL WEATHER SERVICE INDIANAPOLIS IN
900 AM EST WED FEB 10 2016

NOTE: "FAIR" INDICATES FEW OR NO CLOUDS BELOW 12,000 FEET WITH NO
SIGNIFICANT WEATHER AND/OR OBSTRUCTIONS TO VISIBILITY.

* - STATION DOES NOT REPORT WEATHER SUCH AS PRECIPITATION OR FOG.

+ - STATION NOT QUALITY CONTROLLED BY THE NATIONAL WEATHER SERVICE.
    USE DATA WITH CAUTION...ESPECIALLY DEWPOINT AND RELATIVE
    HUMIDITY OBSERVATIONS.

INZ001>003-010>013-019-020-101500-
NORTHWEST INDIANA

CITY           SKY/WX    TMP DP  RH WIND       PRES   REMARKS
GARY /AIRPORT/ PTSUNNY   12   0  57 W14       30.02R WCI  -3
MONTICELLO +   SUNNY     10   1  69 W10       29.99S WCI  -4
RENSSELAER +   SUNNY     12   3  67 W12       30.01R WCI  -2

$$

LMZ046-743>745-101500-
SOUTHERN LAKE MICHIGAN

STATION/POSITION TIME  TEMP    WIND        PRES    WAVE
                       AIR SEA DIR/SP/G            HT
                 (UTC) (F)     (DEG/KT/KT) (MB)    (FT)
BURNS HARBOR     1302   16     300/ 20     1015.2R
MICHIGAN CITY    1300   18     270/ 23/ 28   N/A

$$

INZ004-005-014>016-021>024-101500-
NORTH CENTRAL INDIANA

CITY           SKY/WX    TMP DP  RH WIND       PRES   REMARKS
ELKHART        FLURRIES  18  14  86 W10       29.91R WCI   6
GOSHEN         LGT SNOW  18  13  80 W13       29.89R WCI   5
SOUTH BEND     LGT SNOW  16  13  88 NW10      29.92R FOG     WCI   4

$$

INZ006>009-017-018-025>027-101500-
NORTHEAST INDIANA

CITY           SKY/WX    TMP DP  RH WIND       PRES   REMARKS
ANGOLA *+        N/A     18  16  93 NW10      29.83S WCI   6
FORT WAYNE     FLURRIES  18  11  74 W16       29.90R WCI   3

$$

INZ028-029-035-036-043>045-051>053-101500-
WEST CENTRAL INDIANA

CITY           SKY/WX    TMP DP  RH WIND       PRES   REMARKS
GREENCASTLE +  MOSUNNY   10   0  61 W8        30.03S WCI  -1
LAFAYETTE      SUNNY      9   3  77 W13       30.02S WCI  -7
TERRE HAUTE    SUNNY     10   3  73 W10       30.09R WCI  -4

$$

INZ030>032-037>040-046>048-054>057-064-065-101500-
CENTRAL INDIANA

CITY           SKY/WX    TMP DP  RH WIND       PRES   REMARKS
ANDERSON       LGT SNOW  12   9  85 W12G17    29.97  WCI  -2
FRANKFORT +    SUNNY     10  -1  60 W13       30.01R WCI  -5
GREENWOOD *+   PTSUNNY   12   7  79 W10G20    30.01R WCI  -1
INDIANAPOLIS   PTSUNNY   12   5  73 W12       30.00S WCI  -2
-EAGLE CREEK   PTSUNNY   11   5  77 W13       30.00R WCI  -4
KOKOMO *+      CLOUDY    12   3  67 W16       29.97R WCI  -4
MT COMFORT *+  CLOUDY    12   7  79 W15       29.99S WCI  -4
SHELBYVILLE    LGT SNOW  14   7  73 W15       30.00R WCI  -1

$$

INZ033-034-041-042-049-050-058-059-101500-
EAST CENTRAL INDIANA

CITY           SKY/WX    TMP DP  RH WIND       PRES   REMARKS
MUNCIE         LGT SNOW  14   9  80 W15       29.95R VSB 1   WCI  -1

$$

INZ060-061-067>069-081>083-085>088-101500-
SOUTHWEST INDIANA

CITY           SKY/WX    TMP DP  RH WIND       PRES   REMARKS
EVANSVILLE     SUNNY     16   5  62 W9        30.16R WCI   4
HUNTINGBURG *+ PTSUNNY   14   5  67 W9        30.13R WCI   2

$$

INZ062-063-066-070>080-084-089>092-101500-
SOUTH CENTRAL AND SOUTHEAST INDIANA

CITY           SKY/WX    TMP DP  RH WIND       PRES   REMARKS
BLOOMINGTON    PTSUNNY   11   4  73 W10       30.04R WCI  -3
MADISON *+     CLOUDY    16  10  79 W10       30.05R WCI   3
SEYMOUR +      CLOUDY    16   9  73 W15       30.06R WCI   1

$$




USA.gov is the U.S. government's official web portal to all federal, state and local government web resources and services.